This demonstration page uses our WeatherBlox Daily Observations layout. Learn more.

Left ArrowRight Arrow

Hourly Observations for November 27, 2015

Temp ( °F °C ) Dew Point ( °F °C ) Humidity (%) Winds ( mph kmh ) Pressure ( in mb ) Visibility ( mi km ) Precip ( " mm )
12:53 am 00:53 Clear 57 13.9 48 8.9 72 72 E 6 9 30.50 1033 10 16 0.00 0.00
1:53 am 01:53 Clear 56 13.3 48 8.9 75 75 NE 5 7 30.50 1033 10 16 0.00 0.00
2:53 am 02:53 Clear 53 11.7 48 8.9 83 83 NNE 3 6 30.48 1032 10 16 0.00 0.00
3:53 am 03:53 Clear 51 10.6 47 8.3 86 86 NE 5 7 30.47 1032 10 16 0.00 0.00
4:53 am 04:53 Clear 50 10 46 7.8 86 86 NE 3 6 30.47 1032 10 16 0.00 0.00
5:53 am 05:53 Clear 50 10 46 7.8 86 86 NE 5 7 30.47 1032 10 16 0.00 0.00
6:53 am 06:53 Clear 49 9.4 46 7.8 90 90 NE 3 6 30.47 1032 10 16 0.00 0.00
7:53 am 07:53 Sunny 49 9.4 46 7.8 90 90 NE 3 6 30.49 1032 10 16 0.00 0.00
8:53 am 08:53 Sunny 55 12.8 49 9.4 80 80 ENE 8 13 30.50 1033 10 16 0.00 0.00
9:53 am 09:53 Sunny 61 16.1 50 10 67 67 E 8 13 30.50 1033 10 16 0.00 0.00
10:53 am 10:53 Sunny 65 18.3 51 10.6 61 61 E 9 15 30.47 1032 10 16 0.00 0.00
11:53 am 11:53 Sunny 69 20.6 51 10.6 53 53 ESE 8 13 30.45 1031 10 16 0.00 0.00
12:53 pm 12:53 Sunny 70 21.1 52 11.1 53 53 E 7 11 30.41 1030 10 16 0.00 0.00
1:53 pm 13:53 Sunny 72 22.2 52 11.1 50 50 VRB 7 11 30.37 1029 10 16 0.00 0.00
2:53 pm 14:53 Sunny 71 21.7 52 11.1 51 51 VRB 3 6 30.34 1028 10 16 0.00 0.00
3:53 pm 15:53 Sunny 72 22.2 52 11.1 50 50 ESE 6 9 30.33 1027 10 16 0.00 0.00
4:53 pm 16:53 Sunny 70 21.1 52 11.1 53 53 E 3 6 30.33 1027 10 16 0.00 0.00
5:53 pm 17:53 Mostly Clear 67 19.4 53 11.7 61 61 ESE 3 6 30.34 1027 10 16 0.00 0.00
6:53 pm 18:53 Clear 58 14.4 52 11.1 81 81 Calm 30.35 1028 10 16 0.00 0.00
7:53 pm 19:53 Clear 56 13.3 52 11.1 87 87 Calm 30.35 1028 10 16 0.00 0.00
8:53 pm 20:53 Clear 54 12.2 51 10.6 90 90 Calm 30.35 1028 10 16 0.00 0.00
9:53 pm 21:53 Clear 54 12.2 50 10 87 87 Calm 30.35 1028 10 16 0.00 0.00
10:53 pm 22:53 Clear 53 11.7 51 10.6 93 93 Calm 30.34 1027 10 16 0.00 0.00
11:53 pm 23:53 Clear 54 12.2 51 10.6 90 90 Calm 30.33 1027 10 16 0.00 0.00

Powered by AerisWeather